Tracking 17145 objects as of 22-May-2015
HD Live streaming from Space Station

MOZ.5/SAFIR/RUBIN 5/SL-8

Track MOZ.5/SAFIR/RUBIN 5/SL-8 now!
10-day predictions
MOZ.5/SAFIR/RUBIN 5/SL-8 is classified as:


NORAD ID: 28898
Int'l Code: 2005-043G
Perigee: 685.8 km
Apogee: 715.5 km
Inclination: 97.8 °
Period: 98.6 minutes
Semi major axis: 7071 km
RCS: 6.834 m2 (large)
Launch date: October 27, 2005
Source: Germany (GER)
Your satellite tracking list
Your tracking list is empty





NASA's NSSDC Master Catalog

Two Line Element Set (TLE):
1 28898U 05043G   15142.54172029  .00000315  00000-0  74778-4 0  9996
2 28898 097.8452 318.5246 0020990 050.8166 309.4895 14.59899135509429

Source of the keplerian elements: AFSPC

N2YO: 280